Location: Ariel
(45.9570°N, 122.5700°W)
Time: 10:31:45
(UTC-07:00)

Tiros 1 - Pass Details

Date: 29 July 2019
Orbit: 631 x 664 km, 48.4° (Epoch: 24 August)

Event Time Altitude Azimuth Distance (km) Brightness Sun altitude
Rises 17:11:56 0° 282° (WNW) 2,997 11.5 34.8°
Reaches altitude 10° 17:15:19 10° 258° (WSW) 2,079 11.2 34.2°
Maximum altitude 17:17:48 14° 226° (SW) 1,810 10.4 33.8°
Drops below altitude 10° 17:20:16 10° 195° (SSW) 2,068 10.1 33.4°
Sets 17:23:38 0° 170° (S) 2,970 10.5 32.8°
